Location: Newark
(37.3396°N, 6.0260°W)
Time: 18:20:55
(UTC+00:00)

OTV 5 (USA 277) - Visible Passes

Search period start: 23 March 2019 00:00
Search period end: 02 April 2019 00:00
Orbit: 315 x 320 km, 54.5° (Epoch: 14 March)

Date Brightness Start Highest point End Pass type
(mag) Time Alt. Az. Time Alt. Az. Time Alt. Az.
30 Mar ? 04:54:15 10° SE 04:55:06 11° SE 04:55:57 10° ESE visible
31 Mar ? 05:07:31 13° SSW 05:09:35 33° SE 05:12:04 10° ENE visible
01 Apr ? 05:22:12 16° WSW 05:24:13 63° NW 05:26:54 10° NE visible
